Track JAS 2 (FO-29) now! 10-day predictions JAS 2 (FO-29) is classified as:
1 24278U 96046B 25182.93227009 -.00000036 00000-0 30935-5 0 9993 2 24278 98.5730 73.8815 0348839 284.7502 71.5230 13.53250127425796